Location: Cabo di Oristano
(39.8500°N, 8.4333°E)
Time: 11:08:18
(UTC+00:00)

Cosmos 2219 Rocket - Visible Passes

Search period start: 28 September 2023 00:00
Search period end: 08 October 2023 00:00
Orbit: 828 x 846 km, 71.0° (Epoch: 27 September)

Date Brightness Start Highest point End Pass type
(mag) Time Alt. Az. Time Alt. Az. Time Alt. Az.
28 Sep 4.0 02:49:35 10° N 02:54:34 31° ENE 02:59:31 10° ESE visible
28 Sep 2.7 04:33:22 10° NW 04:38:31 37° WSW 04:43:41 10° S visible
28 Sep 2.2 17:38:36 10° S 17:44:07 67° ESE 17:49:41 10° NNE visible
28 Sep 4.8 19:24:45 10° W 19:28:35 19° NW 19:32:27 10° N visible
29 Sep 4.0 02:33:08 10° N 02:38:00 29° ENE 02:42:50 10° ESE visible
29 Sep 2.6 04:16:46 10° NW 04:22:02 41° WSW 04:27:16 10° S visible
29 Sep 4.7 19:07:58 10° W 19:12:00 20° NW 19:16:03 10° N visible
30 Sep 4.1 02:16:42 10° N 02:21:25 27° NE 02:26:08 10° ESE visible
30 Sep 2.4 04:00:11 10° NW 04:05:31 44° WSW 04:10:52 10° S visible
30 Sep 4.6 18:51:12 10° WSW 18:55:25 21° NW 18:59:38 10° N visible
01 Oct 4.2 02:00:15 10° N 02:04:51 25° NE 02:09:26 10° ESE visible
01 Oct 2.3 03:43:36 10° NW 03:49:01 48° WSW 03:54:26 10° S visible
01 Oct 4.6 18:34:28 10° WSW 18:38:49 23° NW 18:43:14 10° N visible
02 Oct 4.3 01:43:49 10° N 01:48:16 23° NE 01:52:42 10° ESE visible
02 Oct 2.2 03:27:02 10° NNW 03:32:31 53° WSW 03:37:59 10° S visible
02 Oct 4.5 18:17:45 10° WSW 18:22:15 25° NW 18:26:48 10° N visible
03 Oct5.101:37:06ESE01:37:06ESE01:26:54Nvisible
03 Oct 3.4 03:19:06 26° S 03:19:06 26° S 03:21:32 10° S visible
03 Oct 4.4 18:01:01 10° WSW 18:05:41 26° NW 18:10:21 10° N visible
04 Oct 4.3 17:44:19 10° WSW 17:49:05 28° WNW 17:53:55 10° N visible
05 Oct 4.1 17:27:38 10° WSW 17:32:31 31° WNW 17:37:28 10° N visible
